Temp
11 11 11 11 11 11 11 11 11 11 11 11 11 11 11 11 12 13 15 16 17 17 18 19 19 19 19 20 20 20 20 19 18 16 16 19 22 22 23 23 22 23 23 23 23 23 22 22 22 22 24 23 21 21 21 20 20 23 25 24 23 22 23 23 22 22 23 24 23 21 20 22 24 22 20 19 21 21 20 20 19 16 15 15 16 17 17 17
11 11 11 11 11 11 11 11 11 11 11 11 11 11 11 11 12 13 15 16 17 17 18 18 18 18 19 20 20 20 19 18 17 16 18 21 22 22 22 22 22 23 23 23 23 23 23 22 21 22 24 23 21 22 23 21 21 23 23 23 23 23 23 22 22 22 22 24 23 21 20 21 23 22 21 22 23 21 22 22 20 20 19 16 15 16 17 17
11 11 11 11 11 11 11 11 11 11 11 11 11 11 10 10 12 14 15 16 16 17 18 18 18 19 20 20 19 19 18 17 17 17 20 21 21 22 22 22 22 23 23 24 23 23 24 23 21 22 24 23 21 22 24 22 22 22 22 25 25 24 23 21 21 22 21 22 23 22 20 21 22 21 21 23 23 21 22 23 22 22 22 19 15 14 16 16
11 11 11 11 11 11 11 11 11 10 11 10 10 10 10 10 12 13 15 15 16 17 17 17 18 20 20 20 19 18 17 17 19 20 22 21 21 22 22 22 22 23 23 23 24 23 24 23 21 23 24 23 21 22 24 23 22 22 22 26 24 21 23 22 21 21 19 19 22 22 20 22 21 20 21 22 23 22 23 23 23 25 24 20 15 14 15 16
11 11 11 11 11 11 11 11 11 10 10 10 10 10 10 10 12 13 15 16 16 17 16 16 19 20 20 19 19 17 17 20 20 20 22 21 21 22 22 22 22 23 23 23 23 23 23 22 22 23 24 23 22 23 24 21 21 23 22 22 21 20 23 22 19 19 18 19 21 22 22 23 21 21 22 22 24 24 24 23 24 25 24 20 16 15 15 15
11 11 11 11 10 11 10 10 10 10 10 10 10 10 10 10 11 13 15 16 16 16 16 17 19 20 20 19 18 16 17 21 20 19 21 21 21 21 22 22 22 23 23 23 23 23 23 22 23 24 23 23 23 23 23 20 20 24 23 20 19 19 22 20 18 18 18 20 22 22 22 21 21 22 20 21 25 24 22 20 20 21 18 17 15 15 15 15
11 11 11 10 10 11 10 10 10 10 10 10 10 9 10 10 11 14 15 16 16 16 17 18 19 19 19 18 17 16 17 20 20 19 20 20 21 21 22 22 22 23 23 23 22 23 23 23 24 23 23 23 22 22 22 21 21 24 24 21 20 19 20 19 17 18 18 22 22 20 21 21 23 23 18 20 24 23 19 15 14 15 14 15 15 15 15 15
11 11 10 10 10 10 10 10 10 10 10 10 10 9 10 10 11 13 14 15 16 17 17 18 18 18 19 18 17 17 18 20 20 19 20 20 21 21 22 22 22 23 23 23 23 23 23 24 23 22 24 23 22 22 21 22 23 24 24 21 19 19 19 18 17 19 19 20 19 19 22 21 20 20 19 22 24 22 17 14 13 13 14 15 16 16 15 15
11 10 10 10 10 10 10 10 10 10 10 10 10 9 10 10 11 13 14 15 17 18 18 18 18 17 18 17 17 19 20 20 20 20 20 20 21 21 22 22 22 22 23 23 23 23 23 23 23 23 24 22 22 23 21 23 24 23 22 21 20 20 19 19 19 20 20 19 19 22 23 21 18 18 21 23 22 18 16 17 17 15 16 16 16 16 15 15
11 10 10 10 10 10 10 10 10 10 10 10 10 9 10 10 11 13 14 16 17 18 17 17 17 17 17 17 18 20 20 20 19 20 20 20 21 21 22 22 22 23 22 22 22 23 23 23 22 22 23 22 22 21 21 23 23 21 20 21 21 20 19 19 21 20 20 20 20 23 23 21 19 19 24 23 18 15 17 19 16 16 17 16 16 15 14 15
11 10 10 9 9 10 10 10 9 10 10 9 9 9 9 9 11 13 14 16 17 17 17 17 17 17 16 17 19 20 20 19 19 19 20 20 21 21 22 22 22 23 22 21 21 23 24 22 20 21 23 23 22 21 20 21 20 20 21 22 20 20 20 20 21 20 20 21 19 21 23 21 20 20 24 22 16 15 19 20 17 16 17 15 15 15 14 14
10 10 9 9 9 9 9 9 9 9 9 9 9 9 9 10 11 13 15 16 17 17 17 17 17 17 17 18 20 20 19 19 19 19 20 20 21 21 21 22 22 22 23 21 22 23 23 22 22 23 23 22 22 22 21 19 19 20 21 23 22 21 22 20 20 19 20 21 18 20 22 22 22 22 23 20 16 17 19 20 18 17 15 14 15 15 14 14
10 9 9 9 9 9 9 9 9 9 9 9 9 9 9 10 11 14 15 16 16 16 17 17 17 17 17 19 20 19 19 19 19 19 20 20 21 21 21 21 21 22 23 23 23 23 23 23 24 23 21 22 22 21 21 19 19 21 21 22 22 22 22 20 19 19 21 21 18 20 22 23 23 22 22 18 16 19 20 21 19 17 15 14 14 14 14 13
10 9 9 9 9 9 9 9 9 9 9 9 9 9 10 10 12 14 15 16 16 16 17 16 17 17 18 20 19 18 19 19 19 19 20 20 20 21 21 21 22 22 22 23 23 22 22 23 23 21 20 21 21 19 21 20 20 21 21 20 20 21 22 20 18 19 22 19 18 22 22 23 25 22 21 17 16 19 22 22 21 19 17 15 14 14 14 13
10 9 9 9 8 8 9 9 9 8 8 9 9 9 10 11 13 15 15 15 16 16 16 16 16 17 19 20 19 18 19 19 19 19 20 20 20 20 20 21 21 21 22 22 23 22 22 23 23 22 20 19 20 21 22 21 20 20 21 20 18 19 22 20 17 18 22 20 19 22 21 23 24 22 19 15 16 19 22 23 21 20 19 17 16 15 15 14
10 10 9 9 8 8 8 8 8 8 8 9 9 9 11 13 14 14 15 15 15 16 16 16 16 17 19 20 19 18 19 19 19 19 20 20 21 21 20 21 21 21 22 21 22 22 22 23 20 19 20 20 21 23 22 21 21 19 20 21 19 19 21 21 18 17 19 20 20 21 21 23 23 22 19 15 16 18 20 22 21 21 20 19 17 15 15 15
10 10 9 9 8 8 8 8 8 8 8 9 9 10 11 13 13 14 14 15 15 15 16 16 17 18 19 19 19 19 19 19 19 19 20 20 21 21 20 20 19 20 21 21 22 22 21 21 18 18 20 19 20 22 21 20 21 19 19 20 19 19 20 21 20 17 17 20 21 20 20 22 23 22 21 17 17 19 21 22 22 21 21 20 19 17 16 16
9 9 9 9 8 8 8 8 8 8 9 9 9 10 11 13 13 13 14 15 15 16 16 17 17 19 20 19 19 19 18 18 19 19 20 20 21 21 21 20 18 19 21 21 22 22 20 19 19 21 21 19 20 22 22 20 21 21 20 20 19 18 18 20 21 18 17 20 20 20 20 21 22 22 21 19 17 19 21 21 20 20 21 21 19 19 18 17
9 9 9 9 8 8 8 8 8 8 9 9 10 11 11 12 13 14 14 14 16 17 18 17 18 19 19 18 18 17 18 18 19 19 19 20 20 21 21 20 19 20 22 21 21 21 20 20 20 21 21 20 21 22 22 21 22 22 20 21 21 20 20 19 19 17 16 20 20 20 21 21 22 21 22 20 17 18 19 19 19 19 19 19 19 19 18 18
9 9 9 9 8 8 8 8 8 8 8 9 10 10 12 14 15 15 14 14 16 16 17 18 18 18 18 17 17 17 18 19 19 19 19 19 20 21 20 20 21 21 21 21 21 19 19 21 21 21 21 21 21 20 20 20 20 20 20 20 20 21 21 19 18 16 15 20 20 19 19 20 20 20 21 20 17 18 21 21 22 21 21 20 19 19 18 18
9 8 8 9 8 8 8 8 8 8 9 9 9 11 14 16 16 16 15 15 14 12 15 16 16 17 17 16 16 17 19 19 19 18 19 19 20 21 20 20 21 21 19 19 20 18 19 21 21 20 20 19 18 18 18 18 18 19 20 21 20 19 21 19 18 17 15 19 20 17 18 20 20 21 21 19 19 20 22 22 22 22 21 19 19 19 18 17
9 8 8 8 8 8 8 8 8 9 9 9 9 10 13 15 16 17 17 18 16 12 14 15 15 17 16 16 16 17 19 20 19 18 19 19 20 21 20 20 21 20 18 18 19 20 20 21 21 18 17 17 16 16 19 20 19 19 19 20 20 19 19 18 18 17 16 19 21 18 19 21 20 20 20 19 19 20 19 19 20 19 20 19 19 19 18 17
9 9 9 8 8 8 8 8 9 8 9 9 9 9 12 15 16 17 18 19 17 15 15 16 17 18 17 17 17 17 19 19 19 19 18 19 20 20 20 20 20 19 18 19 21 20 20 20 19 16 16 18 18 17 20 20 19 19 19 21 20 18 19 20 19 17 16 17 18 19 20 21 21 20 21 18 15 17 16 16 17 16 17 18 17 16 16 17
9 9 9 9 8 9 9 9 9 9 9 9 9 11 13 15 16 17 18 18 18 17 16 16 16 17 17 18 18 18 19 18 18 19 17 19 20 19 20 19 19 19 19 19 20 20 20 17 14 14 17 20 19 18 20 21 20 18 19 21 21 19 19 19 19 18 17 16 16 19 21 21 22 22 23 19 15 18 17 17 20 18 15 15 14 15 14 15
8 8 9 9 9 9 9 9 9 9 9 8 10 13 13 14 16 17 18 18 18 17 16 16 16 18 18 17 18 19 19 18 18 17 16 19 20 19 19 18 19 19 18 18 19 20 20 14 12 16 18 19 20 19 20 21 21 19 19 20 21 21 20 19 18 19 20 19 16 17 21 22 22 23 25 21 19 22 20 19 23 21 17 17 16 16 15 14
9 9 9 9 9 9 9 10 9 9 9 10 12 13 13 15 16 17 19 18 17 17 16 17 17 18 19 18 18 18 19 19 17 15 16 18 18 19 19 18 18 18 17 18 19 19 17 13 14 18 18 19 20 20 19 19 21 20 19 18 18 20 21 20 20 20 20 20 15 15 20 21 21 23 24 20 20 23 22 21 23 20 20 19 17 16 15 14
9 9 9 9 9 10 10 10 9 10 11 12 13 14 14 15 15 17 18 16 17 18 17 16 17 18 18 16 17 19 20 18 16 16 16 17 17 18 19 18 18 18 16 18 19 18 16 15 16 18 19 19 20 20 19 18 21 20 16 16 18 20 21 20 21 20 19 18 16 16 19 20 20 22 21 18 20 25 23 23 23 21 21 19 18 17 16 15
10 9 9 9 10 10 10 10 9 10 12 13 13 14 14 15 15 18 18 16 16 18 17 16 17 18 17 15 17 18 17 17 18 17 15 16 18 19 20 19 19 18 15 18 20 17 15 17 18 18 19 19 19 19 17 18 21 18 13 14 17 18 19 19 20 20 17 17 20 18 18 19 20 21 20 18 21 25 23 22 22 21 20 19 18 18 16 16
10 10 10 10 10 10 10 11 11 11 12 13 13 14 14 15 16 18 18 16 17 17 17 16 17 17 16 16 17 17 16 16 18 17 15 17 18 18 19 18 17 17 15 17 20 17 15 15 16 18 20 19 17 14 13 18 21 15 11 13 15 15 17 17 19 20 18 18 21 18 16 19 20 21 21 20 21 23 23 22 22 21 20 19 18 17 16 16
10 10 10 10 10 10 11 11 11 12 12 13 13 14 14 16 17 17 15 16 19 17 15 15 16 16 16 17 16 16 17 16 15 16 17 18 17 17 17 15 17 18 17 17 17 15 14 13 13 15 17 16 13 11 11 14 15 13 14 17 18 17 17 17 17 18 19 19 19 15 14 17 20 21 21 21 21 21 22 22 22 22 21 20 19 18 17 17
11 11 10 10 10 11 11 11 11 12 12 13 13 14 15 16 17 16 14 17 19 16 14 15 15 15 16 17 16 15 16 16 15 17 17 17 18 17 17 17 18 18 18 18 17 15 15 15 15 14 13 12 14 14 12 11 12 14 19 20 20 19 18 18 18 18 20 20 17 13 12 16 19 21 22 21 20 20 21 22 22 22 22 20 20 18 17 17
10 11 10 10 11 11 11 11 11 12 12 13 13 14 17 16 15 16 15 17 19 16 15 15 14 15 16 17 17 15 16 16 16 17 17 17 17 17 18 19 19 18 17 18 17 16 17 17 15 14 12 13 17 17 14 14 14 17 19 19 19 19 18 19 18 17 19 18 15 12 13 16 18 20 22 22 22 21 19 20 21 22 21 21 20 19 17 16
10 10 10 10 11 11 12 12 11 12 12 13 14 15 17 15 15 16 15 16 17 15 15 16 14 15 16 17 16 15 16 16 16 16 16 17 17 17 17 17 17 19 18 17 17 17 18 17 15 16 15 14 17 18 17 16 17 18 19 20 20 19 18 19 17 15 17 17 14 12 14 17 18 20 21 21 21 20 18 17 18 19 19 19 19 17 17 16
9 10 11 11 11 11 11 12 11 12 12 13 15 16 16 15 15 16 16 15 15 14 14 15 14 15 16 16 15 15 17 16 15 16 16 16 17 17 17 16 16 18 18 16 17 17 18 18 17 17 16 15 16 17 17 18 17 17 16 18 19 19 20 20 18 18 19 17 14 13 16 20 20 20 20 19 18 17 16 15 15 16 16 17 17 17 17 18
9 10 10 11 11 11 11 12 12 12 12 13 15 15 15 15 15 16 16 14 14 14 14 14 14 15 15 15 15 15 17 16 15 16 16 16 17 16 17 17 15 17 18 17 17 17 18 18 16 14 13 15 17 16 16 18 18 15 14 17 19 19 19 17 14 16 17 16 16 15 17 19 19 20 18 16 17 18 17 15 16 17 17 17 18 19 19 19
9 10 10 10 10 10 11 12 12 12 13 14 15 14 14 15 15 15 16 15 14 14 14 14 15 15 15 15 15 15 16 16 15 15 16 16 17 16 17 18 16 16 18 19 17 16 17 17 14 13 13 14 14 14 15 17 18 16 15 18 17 15 18 17 13 12 13 17 18 16 18 18 18 20 19 17 19 20 19 17 18 19 19 19 20 19 19 18
9 9 10 10 9 10 10 12 12 12 13 14 14 14 14 15 14 14 15 15 14 15 15 15 15 15 15 15 15 15 16 16 15 15 16 15 17 17 17 17 17 16 18 18 18 17 18 17 14 14 16 13 11 13 15 14 15 17 17 17 15 14 17 18 17 15 14 17 18 15 17 19 19 21 21 19 20 21 20 19 19 19 20 20 19 18 18 17
9 9 9 9 9 10 10 11 12 12 13 13 14 13 14 14 12 12 13 14 14 15 16 16 15 15 15 15 15 14 15 16 15 15 16 15 17 18 17 17 17 17 17 17 18 18 18 19 15 12 14 14 11 14 17 14 13 15 16 16 16 18 18 18 18 18 17 17 18 15 14 16 18 20 22 21 21 21 20 19 20 20 20 20 19 18 18 17
8 9 9 9 9 10 11 11 12 12 12 12 13 13 13 13 12 11 11 13 15 16 16 16 15 14 14 15 15 14 15 16 14 14 16 16 16 17 17 18 17 16 16 17 19 18 17 19 17 12 12 14 14 16 17 15 13 14 15 15 16 18 18 18 17 18 18 18 17 17 16 17 18 19 22 23 20 19 19 19 20 20 20 19 18 18 18 18
8 10 10 8 9 10 11 11 11 12 12 11 12 12 12 12 12 11 10 12 14 15 16 16 15 14 14 14 15 15 15 15 14 15 16 16 16 16 16 18 17 15 15 17 18 17 17 18 18 13 12 14 15 16 16 16 15 15 16 16 16 16 16 17 16 15 18 19 17 18 18 20 19 16 19 22 19 17 18 19 19 19 19 19 18 18 18 18
7 9 9 8 9 9 10 11 11 11 11 11 12 12 12 12 12 12 11 11 12 13 13 15 15 15 15 14 15 15 14 14 14 15 16 15 16 17 16 17 17 15 15 17 18 18 17 18 16 14 13 15 15 13 12 15 16 16 17 17 17 16 16 18 17 14 15 17 17 17 18 20 19 14 16 20 18 17 18 19 19 19 19 18 17 17 18 18
7 8 8 8 8 9 10 10 10 10 10 10 11 12 12 12 12 12 12 12 13 12 12 14 14 15 15 15 15 15 14 15 14 14 16 15 16 17 16 16 16 16 16 17 17 16 15 16 16 14 14 14 14 11 9 11 14 15 16 16 16 17 17 19 19 15 14 15 14 15 16 20 18 13 13 17 17 16 17 18 19 19 18 17 17 17 17 17
8 8 7 8 8 10 10 10 9 9 9 10 11 11 11 12 12 12 12 12 13 13 13 14 14 14 15 14 14 15 15 15 14 14 16 15 16 16 16 15 16 17 17 18 17 16 15 17 17 15 14 14 13 11 9 11 13 15 15 15 15 16 17 18 17 15 16 16 15 15 16 19 18 14 12 14 15 16 16 17 19 19 17 17 17 17 17 17
7 7 7 8 9 10 9 9 9 9 9 9 10 11 11 11 12 12 12 13 13 13 14 13 13 14 14 13 14 15 15 16 15 15 15 15 15 14 14 15 16 17 17 18 18 17 17 18 17 15 15 15 15 14 14 13 13 14 15 14 15 15 15 15 14 15 16 16 16 17 17 18 18 15 13 13 15 16 16 16 17 17 17 17 17 17 17 16
7 7 7 7 8 9 8 8 8 8 8 9 10 11 11 11 11 12 12 12 12 12 14 13 12 13 13 13 14 15 14 15 16 15 14 14 14 13 12 13 15 16 17 17 17 18 17 17 17 16 16 16 16 16 16 15 13 13 14 13 14 15 15 16 16 16 17 15 15 18 19 18 17 16 15 15 16 17 17 16 15 15 16 16 16 16 16 14
7 7 7 7 8 8 8 8 8 8 8 9 10 10 11 11 11 11 12 12 12 12 13 12 12 12 13 13 14 15 14 13 14 14 14 14 14 12 11 12 13 15 16 16 16 17 17 16 16 17 17 17 17 17 16 15 14 14 14 14 14 14 15 17 17 17 17 15 14 17 18 18 17 17 17 17 17 17 17 17 16 15 15 15 15 15 14 13
7 7 7 8 8 7 7 7 8 8 8 9 10 10 10 11 11 11 12 12 12 12 13 12 12 13 14 14 14 14 14 13 13 14 13 13 13 12 11 12 12 13 14 15 15 16 17 16 16 17 17 17 17 17 15 16 16 15 14 14 14 14 15 16 16 17 17 16 15 16 16 17 18 17 17 17 17 16 17 17 16 16 15 15 14 13 12 10
6 7 6 7 7 7 7 7 8 8 9 9 10 10 10 10 11 12 11 11 11 12 13 12 12 13 13 14 14 14 13 13 14 13 13 13 13 12 12 13 12 12 13 14 14 15 17 17 15 16 16 15 16 16 15 16 17 16 15 15 14 13 14 15 16 17 16 17 17 16 16 18 17 17 18 17 16 17 18 17 15 15 14 13 12 13 12 11
5 5 5 5 7 7 7 8 8 8 9 9 9 10 10 10 11 11 11 11 11 11 12 12 12 13 13 13 14 14 13 14 14 13 12 12 13 13 14 14 13 12 13 14 13 14 16 17 15 15 16 15 14 14 14 15 16 15 14 14 13 13 14 15 16 16 16 17 17 15 17 18 17 18 19 17 16 17 16 15 14 15 15 14 15 15 14 12
5 5 5 6 6 6 6 7 8 8 8 9 9 9 10 10 10 11 11 11 11 11 12 12 12 12 12 13 14 14 13 14 14 13 12 13 13 13 14 14 13 12 13 14 14 13 15 16 14 14 15 15 13 12 12 13 15 15 14 13 12 13 13 14 15 15 15 15 15 14 15 15 15 17 18 16 15 15 15 16 16 15 15 15 15 15 13 11
4 4 5 6 6 6 6 7 8 8 8 8 9 9 10 10 10 11 11 11 12 12 11 12 12 11 11 12 13 14 13 14 15 15 14 13 14 14 14 14 13 13 13 13 13 14 14 14 13 13 15 15 12 11 11 11 13 14 14 13 12 12 13 13 14 14 14 15 15 14 15 15 15 16 17 15 15 16 17 17 16 14 13 14 14 13 11 10
4 3 4 6 6 6 6 7 7 8 8 9 9 9 9 10 10 11 11 11 12 12 12 12 12 12 11 11 13 13 13 13 14 13 13 13 13 13 14 13 13 14 14 13 13 13 13 14 14 13 15 14 10 10 13 13 13 13 14 14 12 12 13 13 13 13 14 15 15 15 15 16 15 14 15 15 15 16 17 16 14 13 12 11 12 11 10 9
Height
750 751 753 755 757 758 759 761 762 763 764 766 767 768 769 769 769 770 770 772 774 775 777 778 778 780 781 781 781 782 782 783 783 785 783 781 780 781 781 782 784 784 785 786 788 789 790 792 792 792 792 795 799 801 801 802 804 805 815 821 824 831 827 822 826 826 822 818 819 822 824 823 822 823 823 822 822 823 825 825 825 826 825 825 825 825 827 828
749 750 752 755 756 758 759 760 761 763 764 765 767 767 768 769 768 769 770 771 773 775 776 777 778 779 779 780 780 781 782 783 784 784 780 779 780 780 781 782 783 784 784 785 787 788 790 792 792 792 794 798 802 802 802 804 805 810 821 823 822 825 820 817 819 820 821 817 818 822 825 824 821 822 822 822 824 825 825 824 825 825 824 824 825 825 826 828
748 750 752 754 756 758 759 760 761 762 763 765 766 767 768 768 767 768 769 771 773 775 775 776 778 778 778 779 780 781 782 784 785 782 777 778 780 780 781 781 782 783 783 784 786 787 789 790 791 793 796 801 804 803 803 805 807 813 819 819 818 817 817 819 819 818 820 819 819 822 825 825 822 822 821 822 825 826 825 823 823 823 822 823 824 825 825 827
747 749 751 753 755 757 758 759 760 762 763 764 766 767 767 767 767 767 769 771 773 774 775 776 777 776 777 778 780 781 782 786 784 776 775 778 778 779 780 781 782 782 783 783 785 787 788 790 791 793 797 803 806 805 806 807 808 814 816 815 816 818 817 816 818 818 820 822 820 822 826 824 823 823 822 822 825 826 823 819 818 817 818 822 825 825 825 827
746 748 750 752 754 756 758 759 760 761 762 764 765 766 766 766 767 768 769 771 772 773 774 776 775 775 777 778 780 781 784 788 780 772 774 777 777 779 779 780 781 782 782 783 784 786 788 789 791 795 800 804 807 806 808 809 809 812 816 817 818 821 817 815 820 820 820 822 821 823 824 822 823 823 821 821 822 821 817 815 814 813 815 819 822 824 826 827
745 747 749 752 754 755 757 758 760 761 762 763 764 765 766 766 767 767 768 770 771 773 774 774 774 775 777 779 781 782 785 784 775 772 774 775 777 778 778 780 781 781 782 783 784 786 788 791 793 798 802 805 809 808 809 811 811 811 816 819 820 821 818 819 822 821 821 819 818 822 822 823 823 822 824 822 816 814 814 815 815 814 816 817 819 823 825 827
744 746 749 751 753 755 756 758 759 761 762 763 764 765 766 767 766 767 768 769 771 772 773 773 773 775 776 779 781 784 785 779 773 774 774 775 777 777 778 779 780 781 782 782 784 786 789 792 796 801 803 806 810 810 809 811 811 811 814 816 819 822 820 822 823 822 821 816 818 823 822 824 823 822 828 822 813 813 815 816 816 816 817 817 819 822 823 824
744 746 748 750 752 754 756 757 759 760 761 762 763 764 765 766 766 766 767 768 770 771 771 772 773 775 776 779 781 784 784 776 773 774 774 775 777 777 778 779 779 781 781 782 784 785 789 792 797 800 803 807 807 809 810 811 811 811 813 816 819 822 821 824 824 821 820 819 822 823 821 824 826 827 827 818 811 814 816 816 817 817 818 818 818 820 821 823
743 745 747 749 751 753 755 757 759 760 761 762 762 763 764 764 764 765 767 768 768 769 770 772 774 775 776 778 780 783 780 774 773 773 774 775 776 777 778 779 779 780 781 782 783 784 789 793 796 797 801 806 806 808 810 811 813 812 814 817 818 820 822 822 821 820 820 821 822 820 821 824 828 829 822 814 813 816 817 816 817 819 819 818 818 819 820 822
742 744 746 748 750 752 754 756 758 759 761 761 762 763 763 763 763 764 765 766 767 768 770 772 774 775 776 777 780 783 776 772 774 773 774 775 776 777 777 779 779 780 781 782 783 784 787 790 793 794 797 804 806 810 813 811 813 814 816 817 818 820 822 821 819 821 821 821 822 820 821 823 826 829 819 813 817 818 816 816 818 819 818 818 818 818 819 820
741 743 745 746 749 751 753 755 757 758 760 761 762 762 763 763 762 763 764 765 766 768 770 772 774 775 777 777 780 779 773 772 774 773 775 775 776 777 778 779 779 781 781 782 784 784 785 787 790 793 797 802 806 812 814 812 813 816 816 816 820 821 821 821 819 822 822 821 824 821 822 824 825 825 817 814 819 818 815 815 818 819 819 820 819 819 819 819
740 742 744 745 747 750 752 754 756 757 759 760 761 762 762 762 762 763 763 764 766 768 770 772 774 775 777 778 777 774 772 773 773 773 775 775 776 777 778 779 780 781 782 783 784 784 786 787 788 794 799 801 806 812 812 813 816 816 816 816 821 821 820 823 822 824 822 822 826 825 825 825 823 820 814 816 820 818 816 815 818 819 820 821 820 820 820 819
740 741 743 744 747 749 751 753 755 757 758 759 759 760 761 761 761 762 762 764 766 768 770 772 774 775 777 777 774 772 772 772 773 773 775 775 777 778 778 780 780 782 782 783 784 785 787 787 789 794 799 801 808 810 809 814 816 816 819 820 823 824 824 826 826 825 822 823 826 826 828 823 818 817 814 819 821 817 815 814 817 819 821 822 822 821 820 819
739 741 742 744 746 748 749 752 754 756 757 758 758 759 759 760 760 761 762 764 766 768 770 772 774 775 777 775 771 771 772 772 773 773 774 775 776 778 779 780 780 782 783 784 785 786 787 788 789 794 800 803 807 808 811 816 818 820 823 827 834 832 826 827 830 826 821 825 825 824 830 822 813 815 816 821 822 817 814 812 815 817 820 822 822 821 820 818
739 740 741 743 745 747 749 751 753 755 756 757 757 758 759 759 759 760 762 764 766 768 769 772 773 775 777 774 770 771 771 772 773 773 774 775 776 778 779 780 781 782 783 784 785 787 789 789 791 797 804 805 806 810 815 819 822 827 826 830 844 838 827 829 832 830 824 825 825 825 831 824 814 814 817 823 822 818 814 812 814 815 817 820 820 821 819 817
737 739 740 742 744 746 748 750 752 754 755 756 757 758 758 758 759 761 763 765 767 768 770 772 773 774 776 774 770 770 771 771 772 773 774 775 776 778 779 780 782 783 784 786 786 788 789 790 798 804 805 807 810 811 819 824 826 833 830 829 840 837 831 830 831 833 829 826 826 827 830 823 816 814 817 823 821 819 816 813 814 813 814 816 817 818 818 816
736 738 739 741 743 745 747 749 751 753 755 756 757 758 758 759 760 762 764 766 767 769 771 772 772 774 774 771 770 770 770 771 771 773 774 775 777 777 779 781 783 784 785 786 788 789 790 795 804 807 807 813 815 812 822 832 830 834 835 833 839 841 836 831 829 834 832 827 827 829 831 823 815 813 815 820 821 818 815 811 812 812 811 812 813 815 815 814
736 737 738 740 743 745 747 748 750 752 754 755 757 758 759 760 762 764 765 766 768 770 773 772 773 777 776 770 770 770 769 770 771 772 773 775 777 778 779 780 783 784 786 790 791 792 795 801 806 807 811 817 816 813 820 830 827 827 831 830 836 841 840 835 830 833 833 828 829 831 832 824 816 815 813 816 820 817 814 813 813 812 810 809 810 811 811 811
734 736 737 739 742 744 746 748 749 751 753 755 757 758 761 762 764 765 765 766 768 770 773 771 770 775 774 768 768 768 769 771 771 772 774 775 777 779 779 781 784 785 790 795 796 797 799 804 809 811 815 817 814 811 814 819 817 819 827 826 826 829 834 836 833 836 836 830 829 830 829 825 818 816 811 811 819 818 814 814 812 810 809 808 809 808 808 808
733 735 736 738 741 743 745 747 749 751 753 754 755 758 760 762 765 767 767 766 767 768 769 767 767 769 769 768 768 768 769 771 772 773 774 775 776 779 781 783 786 789 793 797 799 802 803 806 812 812 812 812 812 815 817 821 821 822 828 829 829 828 827 833 834 837 838 829 830 834 833 829 822 818 812 811 817 817 811 808 806 805 806 805 806 805 805 804
732 734 736 737 740 743 745 747 749 751 751 753 754 755 755 754 757 762 765 767 767 767 767 766 767 767 767 768 768 767 769 772 773 773 774 776 776 779 785 787 789 795 800 802 802 803 805 809 811 809 811 812 817 822 820 823 826 826 828 827 831 833 829 833 835 836 838 830 830 839 834 826 821 816 811 811 813 809 805 804 803 803 804 805 805 803 803 802
732 734 735 737 739 742 744 747 749 750 751 753 754 754 752 750 751 752 756 764 767 766 767 767 767 767 768 768 769 768 768 773 776 775 775 775 776 781 787 789 792 799 804 804 803 806 810 809 808 812 818 819 824 826 818 820 825 827 831 827 828 835 834 834 835 836 837 829 828 836 831 821 817 814 809 810 811 806 807 807 805 804 803 803 803 802 802 801
731 733 735 737 739 742 744 747 748 749 751 752 753 753 751 750 751 750 752 760 766 767 767 767 767 768 769 768 769 769 769 773 777 776 775 775 778 782 786 790 795 800 803 801 802 810 813 809 810 818 819 815 821 824 817 820 826 828 830 827 829 839 836 830 831 836 839 836 834 834 829 820 814 812 807 811 816 811 810 810 807 809 806 803 803 803 803 801
730 733 735 736 740 742 744 746 748 749 750 751 751 750 750 750 751 751 753 762 767 767 766 767 768 767 768 768 768 769 771 774 775 776 775 776 780 784 785 791 797 800 803 801 801 806 808 813 820 821 816 811 817 822 818 817 825 831 830 825 827 833 833 833 834 837 838 841 841 832 823 817 811 809 804 809 817 809 808 808 801 804 807 804 804 803 803 802
731 733 734 737 740 741 744 746 747 749 749 751 751 749 751 751 751 752 754 765 770 769 768 767 768 767 766 767 768 769 772 774 776 776 776 776 779 784 787 792 795 801 806 805 805 804 807 820 823 816 815 814 814 819 819 817 822 829 827 823 823 822 827 835 836 835 833 835 843 840 828 818 811 807 802 807 811 803 803 805 796 799 802 802 802 800 801 801
731 733 734 737 740 741 744 746 746 748 749 751 749 749 751 750 753 751 754 771 776 770 771 769 769 768 765 768 769 770 774 776 776 777 776 777 778 780 788 794 796 802 808 806 805 807 812 821 820 812 813 815 814 817 820 821 823 826 827 828 829 824 825 830 830 832 833 836 848 850 838 829 819 806 803 813 812 801 800 801 797 799 799 799 801 800 800 800
731 733 734 737 739 741 743 743 745 747 749 750 748 750 751 750 753 749 758 785 782 765 769 772 769 766 765 769 768 770 779 779 777 778 778 778 779 779 786 795 796 801 806 804 806 811 814 818 818 813 813 815 816 816 819 822 821 824 832 833 829 824 826 830 828 831 838 841 847 848 841 839 832 813 811 821 811 798 800 801 798 799 799 800 801 800 800 799
731 733 735 737 740 741 742 741 743 745 746 747 747 750 750 750 754 750 764 792 781 760 765 770 767 765 766 770 769 772 778 776 777 781 779 778 780 780 785 792 793 799 805 803 805 812 813 812 812 812 812 815 815 817 821 820 817 828 840 838 832 830 831 833 831 834 846 845 839 843 845 843 834 817 816 822 809 800 803 803 800 800 801 801 801 801 801 801
731 733 735 738 740 741 742 741 742 744 744 745 747 749 750 751 752 754 773 785 768 758 765 766 766 768 769 771 773 775 777 777 779 781 780 780 780 780 786 793 794 800 806 803 803 811 815 814 814 811 808 812 820 828 830 819 816 834 845 840 837 841 839 838 836 835 845 846 838 847 853 845 831 814 812 817 810 806 806 804 803 802 803 804 803 803 802 801
731 733 735 738 739 741 741 742 743 743 744 746 747 749 750 752 755 769 789 778 757 762 769 767 768 769 771 774 778 779 778 780 782 781 782 782 781 783 789 794 795 798 804 805 808 814 817 819 819 816 813 818 826 835 837 829 827 835 836 830 831 837 838 841 844 840 843 846 846 859 864 851 836 818 809 812 810 808 806 804 804 802 801 803 802 803 802 801
730 733 735 737 739 740 740 742 743 743 745 745 747 749 750 756 763 776 785 763 751 768 772 770 773 771 771 773 777 781 780 783 783 781 783 785 785 787 790 794 795 801 807 807 811 817 817 816 817 819 822 825 824 828 837 838 837 832 824 824 830 837 840 841 845 844 844 846 852 867 871 858 843 820 807 809 809 810 809 805 804 801 801 803 802 803 803 803
731 732 735 737 738 740 740 741 741 743 745 744 748 749 750 765 772 769 767 754 752 766 766 767 773 772 771 771 775 782 782 784 784 782 784 787 789 790 789 790 792 803 813 811 812 816 814 813 817 820 824 822 815 822 835 836 834 829 824 828 835 845 850 846 850 854 851 850 858 870 868 856 842 819 805 805 803 806 811 809 806 803 803 804 803 804 805 805
731 732 735 737 738 739 739 740 741 742 744 744 748 749 753 770 770 757 759 757 754 760 760 762 769 771 771 772 777 782 781 783 784 784 786 787 790 792 790 791 790 793 804 810 814 816 815 816 818 816 818 818 811 816 829 831 829 826 824 827 832 847 854 852 862 868 857 853 863 873 863 847 835 818 806 803 802 806 812 813 811 809 808 807 807 808 807 805
730 731 734 736 737 739 739 740 742 742 744 745 747 751 759 766 758 748 755 759 758 761 761 762 768 771 771 773 777 778 778 784 786 784 788 789 792 794 790 792 793 789 796 809 813 812 815 815 813 811 813 814 812 813 817 820 825 829 830 828 827 833 837 842 850 848 843 852 864 868 852 831 819 810 805 806 807 811 813 815 816 813 813 812 810 810 806 804
731 732 733 735 737 738 739 740 741 742 744 745 747 755 758 755 750 747 750 757 760 762 763 763 766 772 775 776 777 776 775 782 786 786 788 789 789 791 787 787 793 791 791 803 810 811 812 810 811 816 817 813 812 815 815 814 822 835 837 831 826 823 826 847 863 857 852 855 856 856 843 825 814 805 807 812 808 807 810 812 813 810 810 811 808 807 806 804
733 733 732 735 736 738 739 740 741 742 743 746 750 755 750 743 746 746 744 750 755 759 764 767 768 773 778 779 778 778 775 779 786 788 789 789 787 787 784 782 787 789 783 789 803 809 810 811 815 818 818 817 816 817 817 814 817 831 834 827 831 832 828 845 870 876 869 852 843 847 837 823 818 805 803 811 805 801 806 808 808 807 807 808 806 806 807 806
734 734 735 736 736 738 739 739 741 742 744 747 749 749 745 742 746 747 743 747 751 752 757 765 769 770 774 778 778 777 775 778 786 787 787 791 785 781 783 780 781 783 780 782 793 798 802 810 818 817 813 820 824 819 818 819 819 824 826 824 831 837 831 832 845 861 868 853 842 849 840 826 823 811 800 805 804 799 804 806 806 807 806 807 807 807 809 808
734 735 736 737 737 737 738 740 741 742 746 751 748 745 745 745 749 750 748 747 748 749 752 758 764 766 768 772 775 776 775 776 784 786 786 789 781 772 776 778 778 780 780 780 784 789 793 803 818 824 818 819 823 817 816 823 824 820 821 822 824 827 830 834 838 843 853 853 843 848 854 842 829 813 797 797 802 799 803 806 805 805 806 806 808 808 809 808
734 735 737 738 737 738 738 740 741 743 748 752 747 746 748 748 750 753 752 749 746 746 750 752 758 764 767 768 769 774 774 774 782 784 781 783 779 770 771 772 774 780 781 779 781 787 792 796 812 826 824 820 819 815 814 820 826 824 823 826 824 823 827 832 837 835 836 846 846 842 844 833 819 811 796 791 800 802 804 806 804 804 805 805 807 808 807 807
735 735 738 739 738 739 739 740 743 746 749 750 746 748 752 749 750 753 754 752 747 747 748 749 754 761 765 768 767 770 773 774 779 780 776 778 776 772 771 768 772 780 783 782 782 787 792 793 805 823 827 821 817 815 813 813 819 823 822 825 826 829 833 831 837 841 833 836 844 840 832 816 806 809 801 793 802 806 803 803 804 805 805 806 808 807 806 807
737 737 739 739 738 740 739 742 746 747 749 750 747 749 751 749 749 751 753 753 751 751 750 749 752 755 759 765 765 766 772 775 778 777 775 775 772 769 769 767 770 778 782 784 782 784 791 794 805 822 824 817 814 818 820 815 813 814 814 817 818 822 830 827 833 846 840 835 839 839 832 812 801 811 808 798 802 806 802 800 802 804 805 807 809 808 808 808
739 741 741 739 739 739 740 745 748 748 749 750 748 748 749 748 749 751 752 751 751 752 752 751 752 754 755 758 761 764 768 772 776 775 770 770 768 766 767 767 768 772 776 781 782 784 792 798 807 818 819 816 817 825 831 824 816 814 813 814 815 815 816 815 821 836 842 843 846 845 836 812 801 813 814 804 804 806 805 802 800 803 806 808 809 809 808 808
741 743 741 740 739 739 742 748 749 750 752 751 748 749 749 748 750 751 751 751 750 751 752 751 752 753 754 756 759 761 763 767 773 771 767 768 767 765 767 767 768 770 773 777 780 785 790 792 801 814 817 816 817 822 829 826 818 816 815 816 817 815 813 813 818 827 831 835 840 844 838 813 800 812 815 810 810 808 807 805 801 803 807 808 809 808 808 809
742 743 742 741 740 741 745 749 748 750 753 752 749 750 750 750 750 750 750 750 751 751 750 752 753 753 754 757 756 757 759 761 765 768 767 767 766 767 770 769 768 768 769 771 772 777 784 787 796 811 818 817 818 819 819 818 818 815 814 817 815 815 820 823 826 828 826 826 827 829 827 811 802 809 812 810 810 807 807 808 805 806 807 808 808 807 808 811
742 744 744 743 743 743 747 748 747 751 754 752 750 750 751 751 751 750 750 750 752 751 749 752 755 754 756 758 756 756 759 759 760 765 769 768 767 770 772 771 770 767 766 768 767 770 780 786 789 799 808 810 810 808 802 804 815 816 814 816 815 815 817 816 820 825 823 825 827 817 812 810 806 807 808 808 807 805 806 807 808 810 810 809 809 808 810 813
741 744 745 745 745 746 748 748 748 752 754 752 752 752 751 751 751 751 750 750 752 752 750 753 755 754 756 756 755 757 760 763 763 764 767 768 768 772 775 773 772 770 769 770 769 771 780 786 784 783 787 787 787 789 789 793 805 811 811 812 814 814 813 811 818 820 815 824 828 812 804 808 808 806 807 806 805 805 804 805 807 811 812 810 810 810 811 814
741 742 744 745 745 748 750 750 749 751 752 750 751 751 750 750 751 751 751 749 750 750 751 753 753 752 753 755 756 757 759 764 765 764 767 769 770 775 777 775 774 773 772 772 772 775 779 783 783 781 780 780 781 784 788 789 792 799 804 808 811 813 812 813 813 807 807 819 819 807 807 809 806 805 804 802 804 805 803 803 806 809 811 811 811 812 814 817
743 743 745 744 744 747 749 748 748 750 750 749 749 749 750 752 750 749 751 752 752 750 750 754 754 751 752 752 752 756 761 763 764 766 769 770 771 773 774 773 776 776 775 775 775 776 776 778 783 783 782 784 786 787 790 788 786 793 799 802 807 811 812 811 806 799 804 808 801 800 805 803 801 802 798 798 801 800 798 802 807 809 810 812 812 810 811 813
746 746 747 746 745 747 748 745 746 749 749 749 750 749 750 752 749 747 749 752 754 752 750 752 754 752 753 752 751 755 760 761 762 766 769 770 771 772 771 772 775 777 775 775 777 778 776 777 783 785 783 785 790 793 794 791 787 792 798 800 803 807 806 803 798 796 799 798 796 802 803 796 796 797 792 795 800 798 798 803 806 806 805 805 804 802 805 807
746 746 747 747 747 749 749 746 745 748 749 749 750 749 748 750 749 747 747 748 751 753 751 751 754 755 755 754 752 753 756 755 757 761 765 768 769 770 769 768 771 776 775 773 777 778 777 779 784 786 784 787 795 799 800 799 793 791 796 802 805 806 805 802 797 796 802 802 801 807 807 799 797 794 791 797 800 798 798 798 798 800 801 800 800 802 806 809
746 747 747 747 748 750 750 748 746 747 749 749 749 749 747 747 746 745 746 746 745 748 750 751 754 756 758 757 753 753 755 755 753 755 759 762 763 764 765 765 768 772 773 774 777 776 777 781 786 787 785 788 799 804 804 804 800 796 798 800 803 804 802 800 797 796 800 799 800 808 806 796 792 792 794 798 798 794 793 793 795 800 802 802 803 805 809 812
747 748 747 747 749 751 751 750 748 747 746 745 746 747 748 747 745 745 747 747 745 744 747 749 750 752 757 758 754 751 754 755 755 756 760 761 762 763 763 765 768 768 770 775 777 778 779 778 783 787 783 790 808 807 797 798 803 800 791 787 793 797 795 795 797 795 793 792 795 799 793 784 788 795 795 797 797 794 792 795 798 801 804 806 806 808 811 813
Wind_Speed
18 17 17 15 14 13 13 13 12 12 11 11 11 11 10 9 10 12 15 16 16 16 15 14 13 11 11 10 8 7 6 7 6 9 9 9 16 13 11 15 9 8 10 8 9 8 6 4 4 6 6 4 4 1 2 3 3 4 3 3 1 3 3 5 7 7 4 3 5 4 5 7 3 3 2 1 5 4 2 2 2 2 3 4 5 3 7 19
17 18 17 17 16 14 13 14 12 12 11 11 11 10 9 8 9 13 15 16 16 15 15 13 12 12 11 9 6 6 5 6 5 8 15 12 12 13 11 14 10 8 11 10 10 9 7 3 3 5 5 3 2 2 2 2 3 4 3 3 2 5 4 5 7 6 2 1 4 3 3 4 5 4 2 1 1 3 2 2 4 4 5 3 3 6 17 22
17 18 17 17 18 15 14 14 13 12 11 11 11 10 9 9 10 13 14 15 15 14 14 12 12 12 11 9 5 5 5 4 2 9 17 14 12 13 11 12 10 9 11 10 10 8 8 8 7 6 5 3 2 2 3 2 2 2 4 2 5 6 4 4 6 6 3 3 5 3 2 2 4 2 1 3 2 0 4 5 1 3 8 4 1 11 21 21
18 16 14 16 18 16 14 14 13 12 11 10 10 10 10 10 11 13 14 14 14 13 13 11 12 12 10 8 5 7 6 1 3 7 14 15 14 13 10 10 10 10 11 11 11 8 9 11 8 5 5 3 4 3 2 1 0 2 4 3 5 3 1 3 5 6 4 5 6 3 2 1 4 2 1 6 5 3 6 7 8 8 8 5 4 11 19 20
17 15 13 16 17 16 15 14 13 11 11 10 10 10 9 9 10 12 14 13 13 12 11 10 12 12 10 8 6 8 6 1 3 6 12 16 14 12 10 10 11 10 11 12 12 10 10 9 6 5 4 2 3 3 1 2 2 2 1 4 5 3 1 2 3 3 4 5 6 5 4 3 2 0 3 8 6 5 7 7 9 10 8 9 10 12 15 16
17 14 13 17 17 16 15 14 13 12 11 10 9 9 8 8 10 12 13 12 12 11 10 11 12 11 10 8 7 7 5 1 2 5 13 15 13 11 11 11 11 11 11 12 12 10 8 6 6 4 3 3 2 2 1 3 2 2 1 1 3 3 0 2 3 1 4 7 7 6 3 2 2 1 1 6 8 7 4 4 6 6 7 11 13 14 13 13
17 14 14 17 18 16 15 14 13 12 11 10 9 8 7 7 9 11 12 12 11 10 10 11 11 11 10 8 7 4 3 3 1 6 12 13 12 11 12 12 11 11 11 12 11 7 6 7 5 4 5 3 2 2 1 2 4 4 1 1 2 3 1 3 3 0 4 7 6 4 2 1 3 3 1 4 11 6 3 4 4 5 10 13 13 12 13 15
16 14 16 17 18 17 16 14 13 12 11 10 8 7 7 6 7 10 11 11 10 10 10 10 11 10 10 9 6 2 3 4 3 8 10 12 12 11 13 12 12 11 11 11 9 8 7 7 6 4 4 1 4 3 1 2 5 3 3 1 3 2 3 4 2 4 4 3 2 4 3 2 4 3 1 8 11 6 4 2 2 5 9 10 11 12 12 13
16 14 16 18 18 17 16 14 13 12 11 9 8 7 6 5 7 9 10 10 11 10 9 10 10 10 11 9 5 2 4 3 6 8 9 11 11 12 12 11 12 11 11 9 9 11 6 5 5 5 5 3 4 4 1 3 1 2 3 2 3 1 5 3 3 6 4 1 2 5 1 4 3 1 3 8 7 5 1 5 5 6 7 8 9 11 12 11
16 15 16 18 18 18 16 15 13 11 10 9 8 7 6 6 7 9 10 10 11 10 9 10 10 10 11 6 4 3 3 3 8 8 9 11 11 13 12 11 12 11 11 7 8 11 5 6 7 5 6 3 3 3 1 3 2 3 5 5 5 2 5 3 3 5 4 2 3 3 2 5 1 1 4 5 5 3 3 6 3 6 7 8 7 9 11 12
17 16 17 19 18 18 17 14 13 11 10 9 8 7 6 6 8 9 9 10 10 10 10 10 10 11 9 4 4 4 3 5 8 7 9 10 10 12 10 10 11 9 10 7 7 8 4 10 11 6 3 2 4 3 0 2 3 4 6 5 7 5 3 6 4 5 3 2 3 3 2 5 3 1 6 5 6 2 5 4 3 5 6 7 7 7 8 11
17 16 17 18 18 18 16 13 13 12 10 9 7 6 6 6 8 9 9 9 10 10 10 10 10 11 6 1 4 4 3 7 7 7 9 10 10 10 8 9 8 7 8 5 6 6 5 13 13 7 1 4 5 2 2 3 4 3 3 4 5 7 4 5 3 4 3 2 2 2 1 6 3 5 9 5 6 3 5 3 3 5 5 5 6 5 6 10
17 16 15 16 17 16 15 13 12 11 9 8 7 6 6 5 7 8 9 9 9 10 10 10 10 10 5 1 4 4 5 7 7 8 9 10 11 9 7 8 7 6 6 5 8 7 8 12 11 7 3 6 3 2 4 4 3 2 3 4 2 6 4 4 3 3 1 2 3 2 1 7 7 9 9 6 6 3 1 4 5 5 5 5 5 5 6 9
16 15 13 14 13 13 14 13 12 11 8 7 6 6 6 5 7 9 9 9 9 10 9 9 10 8 3 2 3 3 5 6 7 8 9 11 11 9 7 7 7 6 5 6 9 8 7 10 10 7 3 4 3 2 5 6 4 2 3 3 2 1 3 5 3 1 2 0 4 5 2 6 7 9 7 6 5 2 4 6 5 5 5 5 5 6 7 9
16 14 13 12 11 11 13 13 12 10 8 7 6 5 6 5 7 8 9 9 9 9 8 8 9 6 1 3 2 3 5 6 7 8 8 11 11 9 7 7 7 6 6 7 10 9 8 10 10 6 1 2 4 5 4 4 4 4 2 1 3 2 5 7 3 1 3 0 6 7 2 6 7 9 6 5 4 3 6 7 6 6 6 6 6 6 7 8
16 14 13 13 11 11 13 14 12 10 9 7 6 6 6 6 7 8 9 9 8 8 7 7 8 5 2 1 0 3 4 5 8 8 8 11 10 8 10 11 9 8 9 10 12 11 8 8 6 3 3 3 5 6 4 4 4 4 3 3 1 2 3 4 2 3 1 0 4 3 3 4 4 6 7 4 4 3 3 7 7 7 7 6 6 6 7 7
17 15 13 13 12 11 12 13 12 11 9 9 8 7 7 8 8 9 10 11 10 8 7 6 7 3 1 0 1 2 3 5 8 9 9 10 9 12 13 9 7 9 11 10 9 6 6 6 2 0 3 4 3 6 5 1 3 3 3 2 3 3 3 2 2 4 4 2 1 3 1 6 6 7 9 5 1 2 4 7 7 6 7 6 6 6 7 7
18 16 14 13 13 12 13 13 12 12 11 10 9 10 11 11 11 11 13 14 12 8 4 2 4 2 3 3 2 2 3 7 10 9 9 9 10 13 11 6 6 9 9 6 4 3 4 4 2 2 4 3 2 5 5 5 5 4 2 3 2 2 3 3 3 3 4 3 2 2 3 9 11 10 10 6 2 2 7 7 7 7 7 7 6 6 7 7
18 16 15 14 13 13 14 14 13 13 13 11 13 15 14 12 11 9 10 11 7 5 2 3 4 4 4 4 1 3 6 10 11 8 9 10 10 11 8 7 7 7 6 3 2 1 2 3 4 3 3 3 5 6 7 8 8 9 6 5 5 3 4 5 4 4 1 3 2 4 5 9 10 10 12 7 2 1 8 7 7 7 7 7 6 7 7 8
18 17 16 14 14 15 15 15 14 14 14 14 16 15 10 7 6 4 3 2 2 3 2 3 4 3 1 1 2 8 10 8 5 4 8 9 10 10 6 5 6 6 4 4 2 1 3 4 3 5 7 8 7 6 6 6 6 7 5 5 3 3 2 3 3 5 1 3 3 3 4 8 10 11 13 10 4 4 9 9 8 8 7 7 7 8 8 9
17 16 15 13 15 16 16 16 14 14 16 17 16 8 3 5 4 4 3 1 2 2 1 3 2 3 1 1 5 7 6 4 3 3 6 6 8 9 2 2 6 4 0 3 3 2 4 5 7 6 7 7 7 7 8 7 7 6 6 5 1 1 1 2 1 4 3 1 2 2 4 9 10 11 12 9 6 7 9 9 9 9 8 7 7 10 9 8
16 15 14 14 17 18 17 16 15 15 16 16 11 2 2 2 4 8 7 2 2 1 2 1 2 3 2 2 4 2 3 4 3 2 2 4 4 4 1 3 7 4 1 3 4 3 2 4 7 5 5 8 7 5 8 8 7 6 4 5 2 2 2 3 3 4 5 1 3 4 5 9 10 11 12 9 7 8 7 7 8 8 8 8 8 9 8 8
16 16 16 16 19 19 17 17 16 16 16 14 9 3 2 1 6 11 7 4 1 1 3 1 3 3 3 2 4 1 3 4 4 2 2 4 3 3 4 5 6 5 2 4 6 6 4 5 5 6 7 9 6 4 8 8 5 5 4 5 3 2 1 1 2 5 4 2 1 3 4 8 7 7 9 6 5 7 6 6 8 7 8 10 9 7 7 9
18 20 19 18 20 19 18 17 15 14 14 14 11 5 1 2 10 10 4 3 2 0 1 1 2 3 2 2 3 3 3 2 4 4 2 5 4 3 5 5 5 5 3 6 8 7 4 4 2 7 6 8 7 3 6 7 3 1 3 6 4 3 4 2 2 2 3 3 2 3 4 6 5 6 7 4 4 6 6 6 7 5 6 8 7 7 8 8
20 21 20 21 21 21 19 16 12 12 13 11 10 6 2 4 10 7 3 3 1 1 1 0 0 2 4 3 2 3 3 1 1 2 1 5 6 4 3 2 4 4 4 5 8 5 3 2 4 8 5 6 8 3 4 7 3 1 3 6 6 7 6 2 2 3 4 4 4 5 4 5 6 5 7 5 7 8 6 6 8 7 6 6 6 7 7 6
21 21 22 23 21 22 18 9 9 13 11 7 7 5 4 7 9 5 4 4 1 1 1 2 1 4 6 2 1 4 4 1 1 2 2 4 3 4 4 1 2 3 5 5 5 3 1 1 3 7 6 6 7 4 5 6 6 1 4 5 7 7 8 6 4 4 2 1 3 4 3 4 7 6 7 6 8 10 8 8 8 7 7 6 6 6 6 5
21 22 25 23 20 20 12 5 12 15 7 5 8 5 5 8 7 3 4 5 3 2 4 1 1 5 6 1 1 6 4 3 2 3 3 2 1 4 4 3 2 2 3 4 2 1 2 4 4 5 6 7 6 4 5 7 7 3 3 6 8 8 8 6 6 4 2 2 4 5 4 1 5 6 7 6 7 9 8 8 8 7 7 8 7 6 6 5
21 20 21 20 20 17 6 8 19 13 3 7 11 8 7 8 6 2 5 3 2 2 3 1 0 4 3 2 4 5 2 2 4 1 3 3 1 4 4 5 5 4 1 4 4 3 2 4 5 5 5 4 4 4 6 8 6 3 3 7 7 7 7 5 6 4 1 1 3 5 3 1 5 7 6 6 5 7 7 6 7 8 8 8 7 8 7 6
21 22 20 19 21 13 4 12 19 9 4 10 11 10 9 8 4 4 4 2 1 2 1 1 2 2 1 2 4 4 1 2 2 3 3 4 2 4 4 5 7 8 3 3 5 2 1 3 6 6 5 4 2 1 2 5 3 4 6 8 6 6 6 5 5 4 3 3 4 5 3 0 5 7 5 3 2 5 5 5 6 6 6 6 6 7 7 6
19 22 23 21 18 12 7 11 13 7 6 10 11 11 10 6 3 4 3 3 2 1 1 1 1 1 5 6 2 3 2 2 1 1 2 1 4 6 3 3 6 7 4 6 4 1 2 1 2 3 3 5 4 4 2 3 4 7 6 7 7 6 5 4 3 3 4 2 5 5 3 0 2 6 4 1 2 5 4 1 5 6 7 7 7 7 7 6
18 19 23 22 17 13 9 8 10 8 7 10 12 12 8 4 3 4 5 3 3 2 1 1 1 3 9 10 3 0 3 2 1 3 3 1 3 4 2 2 4 5 4 4 3 4 4 2 0 1 2 4 6 6 5 4 4 6 5 6 5 4 4 4 5 4 2 4 6 4 3 1 2 5 3 3 5 5 6 3 4 7 8 8 7 7 7 6
17 19 23 21 15 12 8 7 12 10 8 12 12 7 5 4 1 4 3 2 3 3 4 4 2 5 9 7 4 3 3 2 0 4 5 3 3 3 3 4 4 3 1 3 1 3 2 1 1 1 1 4 6 6 4 4 4 5 5 6 5 2 3 2 3 1 2 5 4 3 2 2 5 7 6 8 8 7 7 6 2 6 7 7 8 7 6 6
13 20 23 18 13 12 9 10 12 10 10 13 9 4 5 4 6 5 3 2 2 2 3 4 2 5 9 6 4 3 3 2 2 2 2 3 4 3 1 2 5 5 3 5 4 2 1 4 2 2 1 2 5 6 3 1 0 4 5 5 4 3 2 2 4 2 3 4 3 3 2 2 4 6 8 11 9 6 6 6 6 6 5 7 7 6 6 6
9 17 21 17 12 11 11 11 10 9 12 11 5 4 5 5 5 4 4 4 1 2 2 4 6 7 7 5 4 5 3 1 3 4 2 3 5 5 4 3 3 5 4 3 3 5 4 3 3 4 2 3 4 4 6 6 3 2 3 5 5 5 4 4 4 3 3 3 2 4 2 3 2 2 6 8 7 5 4 5 5 6 6 6 6 5 5 6
7 11 16 16 13 11 12 11 8 10 12 7 4 5 8 8 3 3 6 5 1 2 3 3 8 8 3 2 1 4 3 2 3 4 3 4 5 7 6 5 5 4 5 5 3 3 4 4 4 2 2 4 4 2 3 7 3 1 2 5 3 4 5 3 3 5 3 0 2 2 3 4 3 4 5 2 5 5 2 1 0 2 4 2 3 4 5 6
8 8 10 12 11 11 12 10 9 11 10 6 5 7 7 4 3 3 5 4 4 6 7 4 4 6 3 1 1 4 1 3 4 3 3 3 3 5 5 4 6 5 5 6 3 2 3 2 4 3 2 2 2 2 2 3 3 2 2 3 4 4 8 6 1 1 3 1 3 1 3 5 3 5 5 4 1 4 5 5 4 3 1 4 5 5 6 6
8 6 5 6 7 10 11 10 10 11 7 5 6 8 2 1 3 3 3 4 5 8 10 5 2 4 6 4 5 7 3 3 4 3 3 3 2 5 6 4 5 8 6 4 2 3 5 2 3 2 3 1 1 2 4 3 3 5 3 5 4 3 5 5 2 3 4 2 4 1 3 4 1 2 5 5 4 2 2 5 6 5 5 6 3 3 4 4
5 4 3 3 4 8 11 11 12 9 6 3 7 5 1 1 1 2 1 3 5 5 6 5 3 3 6 6 6 7 5 4 5 4 4 3 4 5 8 5 3 7 7 3 2 2 5 3 3 2 2 2 3 3 3 4 4 4 4 3 4 4 2 2 3 1 1 2 4 3 3 3 3 4 4 1 7 7 4 6 7 7 7 6 5 4 3 3
3 2 2 1 2 6 10 11 10 7 4 5 8 5 1 1 1 2 1 1 4 5 4 5 2 2 4 6 5 6 6 6 7 5 4 4 4 5 8 5 2 6 6 3 3 2 4 4 1 2 1 2 3 1 4 1 4 4 2 2 2 3 4 2 3 4 3 3 2 4 3 3 6 6 6 7 9 9 8 8 8 8 8 7 7 6 4 5
2 2 1 1 2 6 10 9 6 4 3 5 6 3 1 0 1 2 2 1 2 2 3 4 3 3 4 3 4 5 4 5 7 5 3 5 4 4 5 5 4 6 4 4 3 3 2 3 3 2 3 1 1 2 6 7 3 3 3 3 2 2 2 2 1 2 4 4 3 2 3 5 6 4 6 7 7 8 9 10 8 7 7 7 6 6 5 5
3 2 1 1 4 8 10 7 2 3 4 1 2 2 1 1 1 2 3 1 1 0 2 4 4 5 5 4 3 5 4 4 6 5 3 5 5 4 5 5 7 8 5 4 3 3 2 3 4 2 0 3 3 3 3 5 5 5 5 6 6 4 4 3 2 1 2 3 4 3 3 7 6 3 5 6 6 8 8 10 9 7 7 6 4 2 1 2
2 2 2 2 5 9 7 3 1 2 2 1 2 3 1 2 2 0 2 2 2 1 2 3 3 3 4 4 4 5 6 4 5 6 4 6 6 4 3 5 8 10 7 4 2 3 3 4 4 2 3 5 3 3 2 2 1 3 3 4 6 4 5 6 5 3 2 1 2 3 1 7 6 3 4 6 5 6 6 7 8 7 6 3 1 2 4 3
1 1 2 4 3 7 4 1 1 1 1 2 1 1 1 2 2 1 0 2 2 2 2 2 2 2 2 3 4 6 7 5 5 6 3 4 5 3 4 7 9 10 8 4 3 3 2 4 4 0 3 3 4 4 2 2 2 2 2 2 5 3 3 5 5 4 4 4 3 3 2 6 6 2 2 5 5 5 5 4 6 6 3 0 1 4 4 4
1 1 2 4 3 6 3 1 2 3 2 2 2 1 1 1 2 2 1 0 1 2 2 1 1 1 2 3 4 7 8 4 5 6 3 3 4 1 2 7 8 9 7 4 5 5 3 2 4 3 2 3 4 4 3 2 1 3 3 2 4 4 6 4 2 4 2 5 6 5 4 6 6 4 3 3 5 5 5 3 3 4 2 1 2 4 4 4
1 1 1 4 3 4 2 1 2 3 3 3 3 2 1 1 0 2 3 2 1 2 2 1 1 2 2 3 4 4 5 2 3 4 2 2 3 3 3 3 6 6 3 1 4 7 5 3 5 6 6 6 5 4 4 4 3 2 2 4 5 6 8 5 3 4 3 5 6 6 5 5 5 4 4 5 7 6 5 4 3 1 2 2 3 5 4 2
1 1 1 1 2 2 1 1 3 3 4 5 3 3 4 2 1 1 2 2 1 2 2 1 1 3 3 3 4 4 5 1 2 3 4 3 3 2 2 0 3 3 0 3 7 6 3 2 5 8 10 11 8 5 3 7 6 4 4 7 7 7 9 6 5 4 5 3 4 7 5 4 4 3 4 6 6 6 6 5 3 4 4 5 5 5 4 2
1 1 2 1 1 1 0 1 3 3 3 5 3 3 6 5 1 1 0 2 2 2 2 2 1 2 3 4 4 3 4 2 2 2 4 3 1 2 3 3 3 1 2 3 4 4 4 3 6 8 10 8 5 5 5 7 8 10 9 9 9 9 10 9 8 10 6 5 7 9 7 6 7 7 8 9 7 6 7 6 5 4 5 6 5 4 4 4
1 0 1 1 1 2 1 2 6 5 4 5 3 3 6 7 5 4 1 1 0 1 1 1 1 3 5 6 5 3 4 3 1 2 2 2 2 1 3 4 2 2 2 2 1 3 5 5 5 6 8 6 3 4 6 7 7 9 11 13 13 12 12 13 15 14 9 7 12 7 11 11 9 8 11 11 9 9 8 7 6 6 6 6 5 4 3 2
1 1 1 2 2 1 1 1 6 7 6 6 3 2 6 8 8 5 2 2 1 2 3 3 3 4 5 4 4 4 5 4 3 2 3 2 2 2 2 2 1 2 3 4 1 2 4 3 3 6 7 7 2 2 5 7 6 6 9 13 13 14 16 17 18 17 12 12 10 6 9 13 8 9 12 8 7 8 6 5 5 4 3 2 3 3 5 6
1 1 0 2 2 1 2 1 6 6 4 6 5 3 5 8 9 5 1 3 4 3 3 5 4 4 5 4 4 4 5 6 5 4 5 4 2 2 2 3 2 2 3 3 2 2 3 3 3 5 4 5 1 2 2 3 5 5 7 8 10 13 15 16 17 13 9 10 8 4 5 10 5 8 8 4 4 5 4 4 2 1 2 4 5 5 6 6
2 1 1 3 2 1 1 1 3 4 3 5 5 3 5 9 9 6 2 1 5 6 6 7 5 3 2 3 4 4 6 6 5 6 7 6 5 3 2 3 5 4 2 2 2 2 3 2 2 5 4 5 1 5 4 3 3 2 5 8 12 13 12 13 12 8 8 11 11 7 8 10 5 8 6 3 3 5 6 5 2 3 2 5 6 4 3 3
2 2 1 3 2 1 0 1 2 4 3 4 4 2 3 5 5 6 3 1 2 5 6 9 8 4 3 5 7 7 7 6 5 5 5 4 4 3 3 3 5 6 4 3 2 1 4 4 2 4 5 4 3 4 7 7 4 4 8 11 15 14 11 9 7 8 11 12 10 10 10 7 4 8 7 5 6 7 7 5 2 1 2 5 6 5 3 0
Wind_Direction
176 173 178 182 182 184 183 183 181 181 183 184 186 191 193 191 188 188 190 195 198 197 196 194 192 192 194 199 204 220 234 214 209 198 205 232 219 219 209 194 188 175 170 164 159 151 129 103 133 123 109 81 17 341 42 20 64 55 78 95 115 170 199 181 178 193 171 213 216 207 171 155 201 222 205 15 37 55 91 322 322 298 252 209 245 268 162 165
176 179 189 194 189 186 184 184 183 183 185 185 189 194 193 192 191 189 191 196 199 200 195 191 191 191 192 192 197 215 217 200 216 233 227 226 212 213 203 194 193 176 167 159 163 161 138 132 150 108 71 50 354 3 52 6 68 83 111 103 211 200 205 187 173 187 168 178 187 180 160 170 199 177 150 178 337 25 130 263 340 325 261 258 294 176 161 164
180 188 195 196 192 189 186 185 186 187 187 189 191 193 197 200 195 190 194 198 201 202 194 190 192 190 188 185 190 202 187 182 260 257 236 222 204 203 196 193 192 171 165 156 159 161 150 155 143 107 59 61 349 14 70 17 47 142 119 101 238 215 219 212 178 186 193 149 147 176 165 174 238 186 163 182 154 80 193 219 243 261 245 249 294 155 157 162
182 190 193 190 190 189 187 185 186 187 186 190 191 192 201 204 196 193 196 198 200 199 192 190 191 188 184 181 184 187 166 118 260 232 220 209 196 196 191 187 180 164 159 148 144 138 135 136 117 84 69 64 338 11 92 350 354 144 116 170 229 197 178 217 192 196 192 157 138 154 130 154 248 213 154 147 129 278 246 223 202 212 212 182 170 159 158 162
181 191 188 183 187 187 185 183 185 185 185 193 194 196 204 206 200 196 196 196 196 194 191 188 188 185 181 180 183 184 153 84 251 189 185 191 187 189 184 174 169 162 156 146 138 124 122 120 90 64 66 75 357 35 92 314 82 101 123 190 198 146 113 256 219 192 149 131 116 123 155 188 212 173 153 148 159 236 237 226 213 206 185 160 163 164 162 165
183 191 181 181 187 186 185 183 186 188 188 194 198 200 204 207 202 195 195 194 193 194 191 183 182 180 179 180 178 176 157 154 267 153 168 180 181 182 172 165 163 162 157 145 135 121 111 87 79 90 66 72 89 97 185 310 47 115 263 218 194 186 126 316 290 237 132 125 137 154 185 160 116 269 192 169 203 222 223 251 241 212 167 151 152 159 166 173
185 188 178 181 186 186 187 185 186 189 190 194 199 202 201 205 197 193 194 192 195 193 186 181 178 176 174 166 155 167 213 260 237 152 166 171 179 178 166 166 160 162 161 143 129 116 108 94 109 137 87 84 148 126 154 346 36 96 171 293 173 178 358 314 307 248 134 138 169 171 118 105 190 215 71 226 234 233 265 305 278 190 150 144 149 165 178 182
186 184 175 179 185 186 187 186 186 188 192 195 198 200 198 200 191 190 192 192 195 188 183 181 174 171 167 154 139 158 257 254 169 159 166 166 175 173 165 166 159 162 159 148 145 133 124 122 143 147 94 138 159 121 119 69 34 79 159 198 125 121 322 314 19 59 91 123 140 116 109 257 230 182 105 248 250 267 288 7 74 145 144 152 163 177 185 188
185 182 175 179 184 185 184 186 187 189 193 192 193 198 198 199 189 189 190 189 188 184 184 180 175 171 165 154 122 157 235 208 168 166 166 167 170 169 168 164 161 163 150 150 157 144 138 148 174 172 140 172 134 119 137 112 233 172 139 151 103 41 323 343 67 36 34 48 57 111 67 299 228 174 272 251 261 292 342 83 104 137 155 178 177 182 186 191
185 184 179 181 182 183 184 185 188 189 191 188 189 196 199 203 194 191 188 183 181 182 184 180 179 173 171 162 115 175 238 163 166 171 168 171 168 168 170 164 164 163 146 139 150 147 155 175 175 157 132 130 115 116 139 139 185 145 112 101 69 18 329 16 76 16 8 35 21 149 213 304 300 345 266 265 308 303 99 91 131 158 179 193 187 192 192 197
185 185 182 182 183 184 181 182 189 187 189 188 187 194 202 207 197 192 184 178 177 179 184 181 180 178 179 171 145 198 228 157 169 170 168 174 168 169 170 166 166 165 152 133 153 162 169 169 152 122 124 150 123 89 226 150 113 110 120 99 18 358 360 20 59 13 4 81 18 132 168 309 351 346 235 258 328 317 130 120 173 186 213 208 200 205 198 210
184 183 181 182 185 189 183 185 191 186 189 190 187 195 202 203 195 188 177 173 176 179 182 180 180 182 177 173 191 207 185 162 170 165 170 172 165 167 163 164 164 168 167 148 166 161 147 160 136 100 167 145 128 108 152 121 93 117 115 113 351 359 20 357 15 339 355 104 342 109 84 302 246 234 247 271 338 20 119 156 212 215 239 237 225 226 214 223
182 179 178 180 185 192 188 188 193 189 190 190 193 202 202 201 191 181 171 171 176 178 181 179 179 178 167 227 218 192 166 166 167 164 169 167 162 162 159 162 159 166 183 172 166 147 143 159 130 105 121 108 129 179 120 71 71 131 58 102 21 9 1 329 341 322 27 95 334 115 222 283 251 252 265 298 332 2 102 224 236 234 249 257 247 240 235 233
180 178 177 177 179 184 183 183 189 190 191 192 193 194 198 195 182 174 167 169 174 176 178 173 172 171 168 238 214 174 171 166 163 163 163 165 157 149 153 161 159 159 169 165 158 141 147 152 114 99 101 92 135 108 56 23 30 91 55 62 50 95 258 303 328 346 131 94 18 96 186 271 267 272 276 309 321 248 253 263 253 248 249 251 250 245 245 240
180 180 180 181 176 174 177 179 184 186 188 189 181 184 194 184 170 165 164 166 166 168 165 162 170 162 142 272 230 170 178 163 159 160 161 165 154 141 149 152 145 135 131 140 139 130 136 131 99 86 83 27 94 90 41 13 24 44 99 323 355 163 258 310 330 28 145 287 33 91 210 273 269 271 274 324 13 164 237 274 279 269 258 246 246 242 245 251
182 182 184 187 180 172 175 177 180 182 181 179 181 190 180 155 152 153 157 156 148 154 148 155 176 161 129 249 185 158 178 164 158 156 156 165 160 144 139 132 120 113 115 115 118 114 101 93 73 79 113 73 88 98 64 29 3 1 101 175 248 169 266 313 332 335 54 110 12 70 217 270 282 275 280 322 48 94 239 274 281 272 266 252 241 239 241 254
179 180 183 184 181 175 176 177 175 174 176 176 178 176 153 137 141 140 139 134 127 134 137 156 176 166 154 160 119 191 185 158 156 151 149 159 162 147 135 117 100 104 106 103 107 92 52 54 54 45 68 70 103 98 84 19 278 310 44 122 219 187 207 280 290 322 28 98 298 25 238 254 273 283 289 293 17 9 284 274 277 269 268 259 246 246 242 245
178 177 177 182 183 176 178 180 172 169 172 171 158 138 127 122 123 127 128 124 112 103 107 148 151 161 245 214 184 199 150 142 146 139 137 144 150 149 137 112 109 106 92 77 71 51 26 29 65 104 42 52 127 113 137 205 202 193 176 146 214 212 204 247 251 274 19 68 207 344 290 266 277 285 290 279 182 251 272 271 278 271 266 264 258 252 246 245
179 177 176 185 187 178 182 180 167 166 166 154 138 125 113 105 105 114 123 121 113 107 138 193 155 163 220 218 179 112 117 133 136 126 125 132 140 138 116 104 107 97 97 90 46 49 71 52 69 122 136 168 186 165 169 193 175 170 177 148 157 177 222 238 247 272 9 96 224 242 250 272 282 288 289 281 139 232 275 278 276 268 263 263 259 252 250 248
177 176 178 190 188 179 181 172 161 166 163 150 143 129 113 116 107 105 125 128 172 160 187 216 166 138 230 273 112 117 116 115 116 117 125 136 138 121 78 66 73 60 104 144 133 96 94 116 173 185 188 192 185 157 140 152 140 137 130 106 140 168 244 252 265 307 355 130 246 244 263 277 275 279 278 279 321 304 276 276 272 266 264 262 260 260 256 249
172 173 180 190 184 177 174 166 162 169 166 161 159 146 150 165 140 152 171 266 239 159 225 249 157 106 45 124 149 141 115 77 48 79 127 144 139 130 61 26 97 75 285 159 136 75 87 152 211 211 191 173 147 128 112 103 91 98 128 118 94 184 239 276 261 318 350 128 259 11 335 282 269 273 271 275 295 277 259 259 266 267 266 265 264 266 265 263
172 176 183 181 173 170 168 163 165 173 172 172 177 213 237 187 118 144 143 117 232 117 56 279 89 67 16 128 173 190 62 86 72 14 141 134 113 147 164 70 123 150 251 133 115 83 101 210 224 200 151 111 93 96 96 90 89 87 110 124 139 219 254 291 300 334 3 55 267 356 344 285 272 271 269 268 265 263 258 250 256 265 271 270 260 262 274 282
176 173 171 166 163 163 164 164 168 176 177 179 191 228 261 164 126 138 123 93 162 9 43 69 105 99 39 105 197 213 78 130 162 240 220 124 102 149 132 104 130 140 145 157 144 138 169 253 234 170 137 112 83 60 91 87 79 93 108 129 172 250 160 227 298 339 8 71 258 328 317 286 290 296 287 277 267 278 287 271 263 256 255 263 265 266 272 274
170 167 164 163 162 160 159 160 166 178 182 186 200 218 330 147 153 146 99 78 132 322 32 80 136 154 129 140 184 141 107 137 160 186 197 130 128 129 132 134 128 127 169 168 144 150 189 271 174 131 120 119 113 85 113 111 71 78 139 137 159 200 175 198 287 336 358 31 30 10 334 296 319 333 299 306 339 313 313 317 303 286 264 271 284 278 261 259
165 166 166 165 163 159 155 155 165 181 181 190 211 229 268 174 168 158 87 79 117 336 335 209 94 185 163 126 141 145 127 87 122 209 197 135 136 128 129 128 125 154 187 140 127 153 209 275 132 123 97 103 121 152 176 146 123 288 208 171 168 169 159 145 42 53 35 9 354 24 20 293 318 327 277 303 348 324 330 346 323 314 316 312 307 293 278 277
157 160 159 157 157 157 155 156 178 175 168 195 223 224 222 183 171 170 91 63 303 277 159 169 119 174 168 131 125 129 115 189 307 3 84 124 126 111 127 106 64 161 179 137 126 158 184 23 90 123 120 109 122 172 209 153 122 196 227 169 143 129 125 127 102 79 87 255 325 44 106 261 316 316 278 314 337 315 330 349 335 331 338 343 330 314 313 307
152 156 159 158 156 159 160 156 164 160 152 208 213 196 194 177 167 170 77 53 285 198 135 182 335 162 167 193 135 131 159 219 115 54 56 103 31 56 123 175 104 139 179 128 128 220 134 90 76 99 102 107 132 187 207 147 124 198 222 124 121 119 127 139 107 89 192 230 330 16 101 215 301 281 278 325 332 318 340 345 337 346 345 345 344 339 344 334
161 160 165 167 162 161 162 151 153 153 155 179 181 178 172 167 164 123 86 102 248 131 131 235 84 136 146 18 69 106 201 218 122 176 347 66 66 46 102 182 150 135 154 125 170 250 102 138 164 135 106 125 172 213 185 134 113 232 190 116 119 120 124 123 94 90 17 21 313 327 51 161 271 275 302 346 329 314 337 329 321 334 336 339 344 344 345 337
169 167 165 160 161 165 171 159 155 155 165 157 162 169 159 157 154 75 82 163 185 75 91 134 111 117 101 64 45 49 33 30 117 224 342 65 60 47 114 181 134 115 45 87 157 217 58 180 185 140 134 175 184 307 151 114 103 185 141 98 80 77 81 78 87 104 51 44 242 276 15 134 265 286 311 2 306 271 286 295 296 305 316 326 337 341 337 334
171 175 170 159 162 173 159 153 158 155 157 157 157 156 145 139 117 96 144 203 146 86 16 112 157 154 130 126 29 2 65 35 358 42 21 61 26 31 104 151 101 103 36 39 91 247 318 274 166 115 142 174 134 79 52 70 121 139 113 77 63 40 36 50 56 84 66 337 252 259 307 196 268 285 272 227 232 214 196 292 321 323 332 340 345 348 348 349
171 175 169 162 166 171 147 140 160 156 157 160 149 142 127 86 71 135 184 200 113 103 68 117 216 139 148 155 160 98 92 33 330 122 127 131 41 47 115 112 74 75 38 38 37 335 358 37 156 154 135 128 102 70 36 33 88 104 92 90 81 7 9 26 0 39 98 256 261 271 290 162 210 265 254 242 258 226 182 146 7 343 339 339 340 345 349 350
170 167 160 160 164 166 157 151 156 151 156 154 140 124 103 94 186 190 180 153 142 185 173 167 204 169 162 150 120 138 124 76 317 145 145 144 140 160 158 168 153 97 129 185 139 358 26 58 294 332 182 150 114 83 43 0 20 72 97 102 94 10 10 5 318 355 199 243 269 285 269 192 231 249 256 263 260 241 215 194 244 316 319 322 331 338 338 343
153 158 159 162 162 159 152 146 148 148 152 147 129 73 79 138 207 200 165 179 189 183 142 130 127 148 151 141 142 157 113 121 190 142 130 130 151 199 262 185 145 117 176 179 131 111 331 308 303 100 237 197 143 128 133 231 212 125 135 128 126 117 87 253 269 287 254 258 291 290 269 249 270 262 246 249 249 237 225 215 232 264 279 292 306 311 314 339
130 150 158 162 161 153 140 138 146 150 146 137 111 89 120 181 204 148 151 208 234 47 72 112 114 126 143 145 178 174 105 143 178 124 98 117 144 196 229 223 159 99 110 139 146 163 170 269 232 165 204 185 165 172 152 143 138 161 155 127 142 154 146 196 217 199 232 270 300 295 273 190 214 261 228 232 260 270 244 235 245 260 263 273 294 308 327 1
124 142 147 149 150 144 138 140 144 149 147 124 96 145 177 198 200 138 165 190 190 66 43 84 118 131 149 64 157 194 133 156 175 122 145 167 174 193 195 202 195 134 128 155 196 172 160 240 262 273 267 152 160 231 123 111 112 219 130 105 153 186 135 135 179 171 169 304 295 269 243 211 213 282 280 281 301 298 308 323 258 271 285 324 17 12 16 23
125 133 133 134 136 135 139 144 142 148 147 117 135 186 204 198 183 187 167 147 151 134 109 84 99 130 160 91 196 222 137 113 153 143 178 196 210 200 191 200 191 181 170 155 158 169 156 254 312 341 359 83 157 229 86 115 166 152 128 165 209 167 113 112 181 57 78 170 268 234 247 290 320 295 314 30 4 305 11 47 104 140 71 72 68 39 35 35
120 124 124 118 119 133 142 142 142 144 130 120 176 196 201 127 169 178 139 122 144 139 128 134 157 153 165 169 192 201 171 117 150 165 181 195 241 200 193 224 194 191 201 151 150 200 154 138 331 28 82 15 264 131 60 36 118 121 174 202 185 121 95 106 141 14 41 226 277 306 225 286 336 258 324 51 131 221 28 76 105 110 104 107 106 56 44 36
112 103 93 93 113 137 141 138 140 131 97 136 201 209 109 83 181 181 128 131 135 130 138 157 163 149 169 180 184 181 175 168 169 174 170 188 244 203 177 200 201 190 199 149 123 202 131 122 323 13 123 312 348 95 82 8 51 118 179 170 115 134 150 93 137 155 123 219 283 309 268 255 199 223 292 172 172 185 158 126 120 122 131 138 132 98 64 44
101 89 61 61 125 137 143 139 129 105 91 180 205 220 185 123 259 245 240 144 116 117 155 178 157 122 172 175 162 166 181 178 170 176 178 185 237 222 176 182 198 184 185 133 142 188 120 127 240 319 290 304 12 103 183 212 20 45 98 108 79 128 159 158 149 161 172 189 261 311 322 261 226 218 225 214 194 176 157 140 141 150 158 158 138 112 76 53
49 86 50 320 129 136 142 133 106 105 160 196 194 193 188 106 280 288 285 197 123 114 171 185 155 139 162 165 155 166 172 165 168 181 202 187 213 244 204 185 165 164 147 81 116 171 104 132 182 320 335 219 181 224 192 170 142 97 116 158 174 68 111 153 97 115 140 156 181 267 299 267 250 211 196 210 197 178 161 145 157 174 172 166 142 115 86 54
21 95 353 340 136 142 138 125 109 164 174 181 133 141 176 141 123 333 332 80 124 80 154 148 141 146 152 152 170 173 148 145 173 182 213 206 202 227 217 182 153 149 130 85 128 168 135 142 156 138 250 202 218 263 211 177 169 159 168 184 176 145 124 150 248 241 122 137 167 175 260 270 259 186 186 205 188 189 176 149 158 184 175 159 135 126 125 17
48 125 320 338 156 154 139 126 154 132 126 159 157 148 139 107 106 65 333 32 74 53 73 99 112 139 155 158 158 161 151 153 182 186 206 213 198 203 210 161 144 152 152 138 159 169 129 107 116 147 214 213 243 286 229 203 141 132 177 190 167 156 136 151 205 221 137 131 145 123 251 272 261 188 200 226 203 201 198 156 153 178 181 155 109 289 281 299
80 152 357 1 158 158 129 113 185 106 112 197 169 88 85 95 95 112 340 21 63 71 46 68 127 136 168 163 140 162 169 167 188 194 205 210 201 219 201 161 151 157 159 157 165 160 122 104 110 44 300 306 322 342 20 42 73 129 234 181 156 180 145 146 182 170 148 175 142 97 269 268 274 273 237 229 199 200 226 189 155 172 196 208 263 279 293 319
108 137 13 14 124 158 152 181 188 161 148 119 92 78 52 88 117 126 141 184 142 123 99 115 157 124 158 148 131 171 185 180 197 202 188 184 203 279 154 172 170 163 169 190 178 173 192 156 128 113 22 352 342 345 334 309 193 192 226 184 157 134 98 101 125 101 142 205 159 148 234 253 275 328 23 111 140 166 229 236 163 166 174 161 250 282 309 340
91 99 347 9 80 140 170 186 129 131 139 131 132 157 130 52 185 163 148 147 160 146 130 157 154 87 117 126 93 153 182 152 175 193 164 187 231 12 54 190 194 181 193 229 147 161 182 176 151 152 172 196 206 215 225 206 176 193 196 174 170 141 137 156 117 100 229 222 158 173 227 251 281 338 59 115 143 166 223 275 315 264 222 225 245 272 290 312
110 119 164 2 39 71 40 81 116 125 151 153 154 175 163 159 284 273 143 155 178 133 86 62 136 85 82 128 113 155 193 124 80 155 161 185 231 327 1 134 167 182 154 111 136 142 134 184 194 188 201 205 193 193 173 127 137 193 183 167 174 171 170 157 115 167 205 158 178 220 199 180 244 242 170 183 180 184 218 248 270 260 256 253 246 253 258 222
101 131 150 148 120 137 31 225 170 158 169 169 165 182 177 175 201 336 208 218 195 144 75 40 134 132 144 155 139 164 188 141 78 131 153 168 200 309 336 71 97 33 33 115 148 118 106 212 213 199 221 219 164 175 180 139 162 188 174 171 182 181 175 164 189 212 164 116 236 231 156 171 228 218 204 209 204 213 230 224 211 220 236 242 238 233 222 207
69 93 151 35 92 167 212 207 175 166 178 179 164 163 174 182 186 183 201 311 10 171 144 30 272 185 170 164 153 154 157 150 168 156 138 136 128 42 8 43 50 348 54 89 31 100 134 215 215 185 224 232 145 177 191 164 176 181 174 183 183 177 179 185 211 215 159 180 239 197 152 200 219 202 215 214 197 207 218 206 199 203 207 207 196 184 170 168
50 64 332 356 61 143 310 142 153 161 174 174 174 176 171 184 195 190 139 106 154 227 178 192 241 200 178 161 135 144 164 166 186 196 160 140 126 111 83 77 354 359 88 112 129 131 153 221 197 170 217 237 196 200 197 173 172 176 186 192 181 182 190 194 214 218 192 214 237 143 169 225 213 190 218 214 188 203 206 196 200 197 190 159 120 80 50 37
108 127 340 38 64 40 353 78 149 158 171 175 192 210 181 188 196 193 152 146 165 193 187 195 211 184 175 169 139 156 185 164 156 180 167 148 152 166 165 175 173 77 86 129 168 189 190 213 162 141 199 252 195 122 189 186 180 192 204 199 186 192 201 206 218 217 199 230 245 144 209 254 226 190 212 196 184 224 248 252 268 13 50 78 76 55 42 36
102 84 111 103 73 19 20 34 144 156 177 188 193 194 192 202 197 180 203 199 158 165 173 172 169 142 137 177 182 197 195 158 140 162 163 153 164 179 174 170 156 137 126 139 139 160 177 184 80 108 169 260 332 113 121 85 89 237 239 211 197 197 205 213 218 202 186 217 232 222 240 255 215 177 180 169 208 250 262 262 317 8 54 104 108 103 77 47
105 32 67 109 72 296 113 57 153 182 199 198 185 154 174 205 187 165 192 285 152 168 164 157 159 140 130 197 215 209 184 157 129 135 142 124 115 118 110 120 129 132 141 138 105 119 150 146 123 137 172 270 321 129 126 97 97 257 249 213 199 202 206 208 215 218 208 204 206 216 234 241 172 158 165 180 208 229 237 227 189 176 162 130 132 139 131 121